Terminal Aerodrome Forecast
Issued by NWS Portland, OR

Home | Current Version | Previous Version | Text Only | Print | Product List | Glossary On
Versions: 1 2 3 4 5 6 7 8 9 10 11 12 13 14 15 16 17 18 19 20 21 22 23 24 25 26 27 28
000
FTUS46 KPQR 040533
TAFSLE
TAF
KSLE 040533Z 0406/0506 VRB03KT P6SM SKC
     FM041500 19002KT P6SM BKN012
     FM041900 24008KT P6SM BKN250
     FM042300 27010KT P6SM BKN050 BKN100=

USA.gov is the U.S. government's official web portal to all federal, state and local government web resources and services.